,,,PA_Meas_PMT16A,,PR_Meas_QMR101_102,,RH_Meas_QMH101,,SR_Meas_QMS101,,TA_Meas_QMH101,,GenWind,,GenWind,
date,time,status,PA,status,PR,status,RH,status,SR,status,TA,status,DirAvg,status,SpdAvg,
2010-02-15, 00:00:04,VALID,1001.23,VALID,0,VALID,92.8754,VALID,0,VALID,24.2476,VALID,337,VALID,0.974609,
2010-02-15, 00:01:04,VALID,1001.18,VALID,0,VALID,92.7991,VALID,0,VALID,24.2086,VALID,355,VALID,0.930078,
2010-02-15, 00:02:04,VALID,1001.16,VALID,0,VALID,92.7838,VALID,0,VALID,24.1696,VALID,355,VALID,1.01016,
2010-02-15, 00:03:04,VALID,1001.18,VALID,0,VALID,92.822,VALID,0,VALID,24.15,VALID,355,VALID,0.665625,
2010-02-15, 00:04:04,VALID,1001.13,VALID,0,VALID,92.8601,VALID,0,VALID,24.1305,VALID,355,VALID,0.707812,
2010-02-15, 00:05:04,VALID,1001.11,VALID,0,VALID,92.9211,VALID,0,VALID,24.1305,VALID,355,VALID,0.547266,
2010-02-15, 00:06:04,VALID,1001.09,VALID,0,VALID,92.944,VALID,0,VALID,24.1305,VALID,355,VALID,0.332812,
2010-02-15, 00:07:04,VALID,1001.07,VALID,0,VALID,92.9822,VALID,0,VALID,24.1092,VALID,355,VALID,0,
2010-02-15, 00:08:04,VALID,1001.06,VALID,0,VALID,92.9517,VALID,0,VALID,24.0915,VALID,355,VALID,0,
2010-02-15, 00:09:04,VALID,1001.06,VALID,0,VALID,92.9669,VALID,0,VALID,24.0915,VALID,355,VALID,0,
2010-02-15, 00:10:04,VALID,1001.06,VALID,0,VALID,93.028,VALID,0,VALID,24.111,VALID,355,VALID,0,
2010-02-15, 00:11:04,VALID,1001.07,VALID,0,VALID,93.0356,VALID,0,VALID,24.111,VALID,355,VALID,0,
2010-02-15, 00:12:04,VALID,1001.06,VALID,0,VALID,93.028,VALID,0,VALID,24.111,VALID,355,VALID,0,
2010-02-15, 00:13:04,VALID,1001.05,VALID,0,VALID,93.0661,VALID,0,VALID,24.111,VALID,355,VALID,0.383594,
2010-02-15, 00:14:04,VALID,1001.05,VALID,0,VALID,93.0432,VALID,0,VALID,24.111,VALID,355,VALID,0.395312,
2010-02-15, 00:15:04,VALID,1000.98,VALID,0,VALID,93.089,VALID,0,VALID,24.1305,VALID,355,VALID,0.414063,
2010-02-15, 00:16:04,VALID,1000.97,VALID,0,VALID,93.0966,VALID,0,VALID,24.0915,VALID,355,VALID,0,
2010-02-15, 00:17:04,VALID,1000.95,VALID,0,VALID,93.0814,VALID,0,VALID,24.0915,VALID,355,VALID,0,
2010-02-15, 00:18:04,VALID,1000.92,VALID,0,VALID,93.0661,VALID,0,VALID,24.0915,VALID,355,VALID,0,
2010-02-15, 00:19:04,VALID,1000.91,VALID,0,VALID,93.0661,VALID,0,VALID,24.072,VALID,355,VALID,0,
2010-02-15, 00:20:04,VALID,1000.89,VALID,0,VALID,93.089,VALID,0,VALID,24.072,VALID,355,VALID,0,
2010-02-15, 00:21:04,VALID,1000.89,VALID,0,VALID,93.0737,VALID,0,VALID,24.0525,VALID,355,VALID,0,
2010-02-15, 00:22:04,VALID,1000.88,VALID,0,VALID,93.089,VALID,0,VALID,24.0311,VALID,355,VALID,0,
2010-02-15, 00:23:04,VALID,1000.9,VALID,0,VALID,93.1043,VALID,0,VALID,24.0525,VALID,355,VALID,0,
2010-02-15, 00:24:04,VALID,1000.87,VALID,0,VALID,93.1043,VALID,0,VALID,24.0329,VALID,355,VALID,0,
2010-02-15, 00:25:04,VALID,1000.86,VALID,0,VALID,93.15,VALID,0,VALID,24.0525,VALID,355,VALID,0,
2010-02-15, 00:26:04,VALID,1000.85,VALID,0,VALID,93.1577,VALID,0,VALID,24.0525,VALID,355,VALID,0,
2010-02-15, 00:27:04,VALID,1000.82,VALID,0,VALID,93.1653,VALID,0,VALID,24.0525,VALID,355,VALID,0,
2010-02-15, 00:28:04,VALID,1000.82,VALID,0,VALID,93.1424,VALID,0,VALID,24.0348,VALID,355,VALID,0,
2010-02-15, 00:29:04,VALID,1000.8,VALID,0,VALID,93.1424,VALID,0,VALID,24.0134,VALID,355,VALID,0,
2010-02-15, 00:30:04,VALID,1000.77,VALID,0,VALID,93.1577,VALID,0,VALID,24.0134,VALID,355,VALID,0,
2010-02-15, 00:31:04,VALID,1000.74,VALID,0,VALID,93.1805,VALID,0,VALID,24.0134,VALID,355,VALID,0,
2010-02-15, 00:32:04,VALID,1000.7,VALID,0,VALID,93.1958,VALID,0,VALID,23.9939,VALID,355,VALID,0,
2010-02-15, 00:33:04,VALID,1000.72,VALID,0,VALID,93.1958,VALID,0,VALID,23.9939,VALID,355,VALID,0,
2010-02-15, 00:34:04,VALID,1000.7,VALID,0,VALID,93.1958,VALID,0,VALID,23.9939,VALID,355,VALID,0,
2010-02-15, 00:35:04,VALID,1000.69,VALID,0,VALID,93.1958,VALID,0,VALID,23.9939,VALID,355,VALID,0,
2010-02-15, 00:36:04,VALID,1000.68,VALID,0,VALID,93.234,VALID,0,VALID,23.9744,VALID,355,VALID,0,
2010-02-15, 00:37:04,VALID,1000.66,VALID,0,VALID,93.1958,VALID,0,VALID,23.9549,VALID,355,VALID,0,
2010-02-15, 00:38:04,VALID,1000.64,VALID,0,VALID,93.1958,VALID,0,VALID,23.9354,VALID,355,VALID,0,
2010-02-15, 00:39:04,VALID,1000.64,VALID,0,VALID,93.1882,VALID,0,VALID,23.8963,VALID,355,VALID,0,
2010-02-15, 00:40:04,VALID,1000.59,VALID,0,VALID,93.234,VALID,0,VALID,23.9159,VALID,355,VALID,0,
2010-02-15, 00:41:04,VALID,1000.64,VALID,0,VALID,93.2568,VALID,0,VALID,23.9159,VALID,355,VALID,0,
2010-02-15, 00:42:04,VALID,1000.63,VALID,0,VALID,93.2645,VALID,0,VALID,23.8963,VALID,355,VALID,0,
2010-02-15, 00:43:04,VALID,1000.67,VALID,0,VALID,93.3408,VALID,0,VALID,23.9159,VALID,355,VALID,0,
2010-02-15, 00:44:04,VALID,1000.65,VALID,0,VALID,93.3331,VALID,0,VALID,23.914,VALID,9,VALID,0,
2010-02-15, 00:45:04,VALID,1000.66,VALID,0,VALID,93.3637,VALID,0,VALID,23.9354,VALID,9,VALID,0,
2010-02-15, 00:46:04,VALID,1000.66,VALID,0,VALID,93.3637,VALID,0,VALID,23.9549,VALID,9,VALID,0,
2010-02-15, 00:47:04,VALID,1000.66,VALID,0,VALID,93.3942,VALID,0,VALID,23.9744,VALID,21,VALID,0,
2010-02-15, 00:48:04,VALID,1000.67,VALID,0,VALID,93.4018,VALID,0,VALID,23.9939,VALID,38,VALID,0.691406,
2010-02-15, 00:49:04,VALID,1000.65,VALID,0,VALID,93.4171,VALID,0,VALID,23.9939,VALID,31,VALID,0.941406,
2010-02-15, 00:50:04,VALID,1000.63,VALID,0,VALID,93.4247,VALID,0,VALID,24.0134,VALID,19,VALID,0.750391,
2010-02-15, 00:51:04,VALID,1000.58,VALID,0.5,VALID,93.44,VALID,0,VALID,24.0525,VALID,2,VALID,0.697656,
2010-02-15, 00:52:04,VALID,1000.56,VALID,0,VALID,93.4552,VALID,0,VALID,24.0915,VALID,345,VALID,0.595312,
2010-02-15, 00:53:04,VALID,1000.57,VALID,0,VALID,93.4934,VALID,0,VALID,24.111,VALID,338,VALID,0.363672,
2010-02-15, 00:54:04,VALID,1000.56,VALID,0,VALID,93.4781,VALID,0,VALID,24.15,VALID,338,VALID,0.760156,
2010-02-15, 00:55:04,VALID,1000.57,VALID,0,VALID,93.4781,VALID,0,VALID,24.15,VALID,351,VALID,0.805859,
2010-02-15, 00:56:04,VALID,1000.52,VALID,0,VALID,93.4781,VALID,0,VALID,24.1696,VALID,352,VALID,0.875781,
2010-02-15, 00:57:04,VALID,1000.48,VALID,0,VALID,93.4705,VALID,0,VALID,24.1696,VALID,351,VALID,0.519922,
2010-02-15, 00:58:04,VALID,1000.48,VALID,0,VALID,93.4705,VALID,0,VALID,24.1891,VALID,351,VALID,0.479688,
2010-02-15, 00:59:04,VALID,1000.48,VALID,0,VALID,93.44,VALID,0,VALID,24.1891,VALID,351,VALID,0.622656,
2010-02-15, 01:00:04,VALID,1000.5,VALID,0,VALID,93.44,VALID,0,VALID,24.1891,VALID,352,VALID,0.454688,
2010-02-15, 01:01:04,VALID,1000.5,VALID,0,VALID,93.4323,VALID,0,VALID,24.1696,VALID,353,VALID,0.432031,
2010-02-15, 01:02:04,VALID,1000.53,VALID,0,VALID,93.4247,VALID,0,VALID,24.1696,VALID,353,VALID,0.48125,
2010-02-15, 01:03:04,VALID,1000.52,VALID,0,VALID,93.4171,VALID,0,VALID,24.1696,VALID,353,VALID,0.419531,
2010-02-15, 01:04:04,VALID,1000.52,VALID,0,VALID,93.4094,VALID,0,VALID,24.15,VALID,353,VALID,0.111328,
2010-02-15, 01:05:04,VALID,1000.49,VALID,0,VALID,93.3866,VALID,0,VALID,24.1696,VALID,353,VALID,0,
2010-02-15, 01:06:04,VALID,1000.47,VALID,0,VALID,93.4094,VALID,0,VALID,24.1696,VALID,353,VALID,0,
2010-02-15, 01:07:04,VALID,1000.46,VALID,0,VALID,93.4018,VALID,0,VALID,24.15,VALID,353,VALID,0,
2010-02-15, 01:08:04,VALID,1000.46,VALID,0,VALID,93.3942,VALID,0,VALID,24.15,VALID,353,VALID,0,
2010-02-15, 01:09:04,VALID,1000.48,VALID,0.5,VALID,93.4018,VALID,0,VALID,24.1305,VALID,88,VALID,0,
2010-02-15, 01:10:04,VALID,1000.45,VALID,0,VALID,93.4094,VALID,0,VALID,24.1696,VALID,155,VALID,0,
2010-02-15, 01:11:04,VALID,1000.41,VALID,0,VALID,93.4323,VALID,0,VALID,24.1696,VALID,155,VALID,0,
2010-02-15, 01:12:04,VALID,1000.38,VALID,0,VALID,93.4247,VALID,0,VALID,24.1696,VALID,155,VALID,0,
2010-02-15, 01:13:04,VALID,1000.37,VALID,0,VALID,93.4323,VALID,0,VALID,24.1891,VALID,155,VALID,0,
2010-02-15, 01:14:04,VALID,1000.35,VALID,0,VALID,93.4094,VALID,0,VALID,24.1891,VALID,155,VALID,0,
2010-02-15, 01:15:04,VALID,1000.32,VALID,0,VALID,93.4171,VALID,0,VALID,24.1891,VALID,155,VALID,0,
2010-02-15, 01:16:04,VALID,1000.31,VALID,0,VALID,93.4171,VALID,0,VALID,24.1696,VALID,155,VALID,0,
2010-02-15, 01:17:04,VALID,1000.31,VALID,0,VALID,93.4323,VALID,0,VALID,24.1696,VALID,155,VALID,0,
2010-02-15, 01:18:04,VALID,1000.28,VALID,0,VALID,93.4247,VALID,0,VALID,24.1891,VALID,155,VALID,0,
2010-02-15, 01:19:04,VALID,1000.29,VALID,0,VALID,93.4018,VALID,0,VALID,24.1696,VALID,155,VALID,0,
2010-02-15, 01:20:04,VALID,1000.26,VALID,0,VALID,93.3942,VALID,0,VALID,24.15,VALID,155,VALID,0,
2010-02-15, 01:21:04,VALID,1000.27,VALID,0,VALID,93.4018,VALID,0,VALID,24.1696,VALID,155,VALID,0,
2010-02-15, 01:22:04,VALID,1000.22,VALID,0,VALID,93.4171,VALID,0,VALID,24.1891,VALID,155,VALID,0.0589844,
2010-02-15, 01:23:04,VALID,1000.21,VALID,0,VALID,93.4552,VALID,0,VALID,24.1891,VALID,177,VALID,0.792969,
2010-02-15, 01:24:04,VALID,1000.15,VALID,0,VALID,93.44,VALID,0,VALID,24.2476,VALID,198,VALID,0.741016,
2010-02-15, 01:25:04,VALID,1000.1,VALID,0,VALID,93.4552,VALID,0,VALID,24.2671,VALID,206,VALID,0.938672,
2010-02-15, 01:26:04,VALID,1000.09,VALID,0,VALID,93.4628,VALID,0,VALID,24.308,VALID,212,VALID,0.685938,
2010-02-15, 01:27:04,VALID,1000.08,VALID,0,VALID,93.4705,VALID,0,VALID,24.3062,VALID,181,VALID,0.930078,
2010-02-15, 01:28:04,VALID,1000.09,VALID,0,VALID,93.4857,VALID,0,VALID,24.3257,VALID,183,VALID,0.641406,
2010-02-15, 01:29:04,VALID,1000.07,VALID,0,VALID,93.4705,VALID,0,VALID,24.3452,VALID,184,VALID,0.280859,
2010-02-15, 01:30:04,VALID,1000.07,VALID,0,VALID,93.4476,VALID,0,VALID,24.3043,VALID,212,VALID,0,
2010-02-15, 01:31:04,VALID,1000.07,VALID,0,VALID,93.4247,VALID,0,VALID,24.3257,VALID,212,VALID,0,
2010-02-15, 01:32:04,VALID,1000.09,VALID,0,VALID,93.4094,VALID,0,VALID,24.3257,VALID,257,VALID,0.05,
2010-02-15, 01:33:04,VALID,1000.06,VALID,0,VALID,93.4018,VALID,0,VALID,24.3062,VALID,258,VALID,0,
2010-02-15, 01:34:04,VALID,1000.05,VALID,0,VALID,93.3789,VALID,0,VALID,24.2866,VALID,258,VALID,0,
2010-02-15, 01:35:04,VALID,1000.05,VALID,0,VALID,93.356,VALID,0,VALID,24.2671,VALID,258,VALID,0,
2010-02-15, 01:36:04,VALID,1000.06,VALID,0,VALID,93.3331,VALID,0,VALID,24.2476,VALID,258,VALID,0,
2010-02-15, 01:37:04,VALID,1000.05,VALID,0,VALID,93.3331,VALID,0,VALID,24.2281,VALID,258,VALID,0,
2010-02-15, 01:38:04,VALID,1000.04,VALID,0,VALID,93.3408,VALID,0,VALID,24.2086,VALID,258,VALID,0,
2010-02-15, 01:39:04,VALID,1000.05,VALID,0,VALID,93.3179,VALID,0,VALID,24.1696,VALID,258,VALID,0,
2010-02-15, 01:40:04,VALID,1000.02,VALID,0,VALID,93.3179,VALID,0,VALID,24.1696,VALID,258,VALID,0,
2010-02-15, 01:41:04,VALID,999.997,VALID,0,VALID,93.3179,VALID,0,VALID,24.15,VALID,258,VALID,0,
2010-02-15, 01:42:04,VALID,1000.01,VALID,0,VALID,93.295,VALID,0,VALID,24.1305,VALID,258,VALID,0,
2010-02-15, 01:43:04,VALID,1000.03,VALID,0,VALID,93.3026,VALID,0,VALID,24.1324,VALID,258,VALID,0,
2010-02-15, 01:44:04,VALID,999.991,VALID,0,VALID,93.3331,VALID,0,VALID,24.1092,VALID,27,VALID,0.603906,
2010-02-15, 01:45:04,VALID,1000.01,VALID,0,VALID,93.3866,VALID,0.112286,VALID,24.1092,VALID,27,VALID,0.417578,
2010-02-15, 01:46:04,VALID,999.989,VALID,0,VALID,93.44,VALID,0,VALID,24.1482,VALID,27,VALID,0.106641,
2010-02-15, 01:47:04,VALID,1000,VALID,0,VALID,93.4018,VALID,0,VALID,24.1482,VALID,27,VALID,0,
2010-02-15, 01:48:04,VALID,1000.04,VALID,0,VALID,93.4552,VALID,0,VALID,24.1482,VALID,90,VALID,0,
2010-02-15, 01:49:04,VALID,1000.08,VALID,0,VALID,93.4781,VALID,0,VALID,24.1872,VALID,90,VALID,0,
2010-02-15, 01:50:04,VALID,1000.1,VALID,0,VALID,93.4857,VALID,0.112286,VALID,24.2263,VALID,89,VALID,0.674609,
2010-02-15, 01:51:04,VALID,1000.07,VALID,0,VALID,93.5163,VALID,0,VALID,24.2263,VALID,92,VALID,0.780469,
2010-02-15, 01:52:04,VALID,1000.08,VALID,0,VALID,93.4705,VALID,0,VALID,24.2263,VALID,93,VALID,1.03047,
2010-02-15, 01:53:04,VALID,1000.06,VALID,0,VALID,93.44,VALID,0,VALID,24.2458,VALID,95,VALID,0.711719,
2010-02-15, 01:54:04,VALID,1000.04,VALID,0,VALID,93.4628,VALID,0,VALID,24.2263,VALID,95,VALID,0.399219,
2010-02-15, 01:55:04,VALID,1000.03,VALID,0,VALID,93.4705,VALID,0,VALID,24.2263,VALID,95,VALID,0.53125,
2010-02-15, 01:56:04,VALID,1000.02,VALID,0,VALID,93.4628,VALID,0,VALID,24.2263,VALID,95,VALID,0.248828,
2010-02-15, 01:57:04,VALID,1000.01,VALID,0,VALID,93.4628,VALID,0.112286,VALID,24.2458,VALID,95,VALID,0,
2010-02-15, 01:58:04,VALID,1000.02,VALID,0,VALID,93.44,VALID,0,VALID,24.2263,VALID,96,VALID,0,
2010-02-15, 01:59:04,VALID,999.99,VALID,0,VALID,93.4476,VALID,0,VALID,24.2086,VALID,96,VALID,0,
2010-02-15, 02:00:04,VALID,999.985,VALID,0,VALID,93.44,VALID,0,VALID,24.2086,VALID,96,VALID,0,
2010-02-15, 02:01:04,VALID,999.969,VALID,0,VALID,93.4476,VALID,0,VALID,24.2281,VALID,96,VALID,0,
2010-02-15, 02:02:04,VALID,999.971,VALID,0,VALID,93.4705,VALID,0,VALID,24.2476,VALID,96,VALID,0,
2010-02-15, 02:03:04,VALID,999.963,VALID,0,VALID,93.4705,VALID,0,VALID,24.2476,VALID,178,VALID,0.930469,
2010-02-15, 02:04:04,VALID,999.937,VALID,0,VALID,93.4628,VALID,0,VALID,24.2671,VALID,179,VALID,0.826563,
2010-02-15, 02:05:04,VALID,999.926,VALID,0,VALID,93.4857,VALID,0,VALID,24.2866,VALID,180,VALID,0.735937,
2010-02-15, 02:06:04,VALID,999.878,VALID,0,VALID,93.4781,VALID,0,VALID,24.2671,VALID,182,VALID,0.598828,
2010-02-15, 02:07:04,VALID,999.859,VALID,0,VALID,93.4857,VALID,0,VALID,24.2866,VALID,191,VALID,0.633984,
2010-02-15, 02:08:04,VALID,999.824,VALID,0,VALID,93.4781,VALID,0,VALID,24.3062,VALID,191,VALID,0.342578,
2010-02-15, 02:09:04,VALID,999.819,VALID,0,VALID,93.4705,VALID,0,VALID,24.3062,VALID,191,VALID,0.142578,
2010-02-15, 02:10:04,VALID,999.814,VALID,0,VALID,93.4857,VALID,0,VALID,24.2848,VALID,191,VALID,0,
2010-02-15, 02:11:04,VALID,999.808,VALID,0,VALID,93.4628,VALID,0,VALID,24.3062,VALID,191,VALID,0,
2010-02-15, 02:12:04,VALID,999.764,VALID,0,VALID,93.44,VALID,0,VALID,24.2848,VALID,191,VALID,0,
2010-02-15, 02:13:04,VALID,999.784,VALID,0,VALID,93.4781,VALID,0,VALID,24.3062,VALID,191,VALID,0,
2010-02-15, 02:14:04,VALID,999.768,VALID,0,VALID,93.4781,VALID,0,VALID,24.3062,VALID,191,VALID,0,
2010-02-15, 02:15:04,VALID,999.781,VALID,0,VALID,93.4628,VALID,0,VALID,24.3062,VALID,194,VALID,0.571094,
2010-02-15, 02:16:04,VALID,999.827,VALID,0,VALID,93.4628,VALID,0,VALID,24.3062,VALID,194,VALID,0.606641,
2010-02-15, 02:17:04,VALID,999.844,VALID,0,VALID,93.44,VALID,0,VALID,24.3062,VALID,194,VALID,0.809375,
2010-02-15, 02:18:04,VALID,999.892,VALID,0,VALID,93.4476,VALID,0,VALID,24.2866,VALID,13,VALID,1.01523,
2010-02-15, 02:19:04,VALID,999.937,VALID,0,VALID,93.44,VALID,0,VALID,24.3062,VALID,13,VALID,1.49414,
2010-02-15, 02:20:04,VALID,999.949,VALID,0,VALID,93.4705,VALID,0,VALID,24.2866,VALID,5,VALID,1.74219,
2010-02-15, 02:21:04,VALID,999.965,VALID,0,VALID,93.4628,VALID,0,VALID,24.2866,VALID,6,VALID,1.65313,
2010-02-15, 02:22:04,VALID,999.97,VALID,0,VALID,93.4552,VALID,0,VALID,24.3062,VALID,6,VALID,2.04375,
2010-02-15, 02:23:04,VALID,999.958,VALID,0.5,VALID,93.4705,VALID,0,VALID,24.3062,VALID,11,VALID,2.41719,
2010-02-15, 02:24:04,VALID,999.953,VALID,0.5,VALID,93.4323,VALID,0,VALID,24.2866,VALID,3,VALID,2.23828,
2010-02-15, 02:25:04,VALID,999.926,VALID,0.5,VALID,93.4552,VALID,0,VALID,24.2476,VALID,351,VALID,1.58203,
2010-02-15, 02:26:04,VALID,999.891,VALID,0.5,VALID,93.4247,VALID,0,VALID,24.2281,VALID,346,VALID,1.49219,
2010-02-15, 02:27:04,VALID,999.926,VALID,0,VALID,93.4552,VALID,0,VALID,24.2086,VALID,348,VALID,0.992969,
2010-02-15, 02:28:04,VALID,999.925,VALID,0,VALID,93.4628,VALID,0,VALID,24.2281,VALID,350,VALID,1.34102,
2010-02-15, 02:29:04,VALID,999.945,VALID,0,VALID,93.4476,VALID,0,VALID,24.1891,VALID,354,VALID,1.41211,
2010-02-15, 02:30:04,VALID,999.929,VALID,0,VALID,93.4552,VALID,0,VALID,24.1696,VALID,353,VALID,1.21719,
2010-02-15, 02:31:04,VALID,999.913,VALID,0,VALID,93.4628,VALID,0,VALID,24.1696,VALID,324,VALID,0.7875,
2010-02-15, 02:32:04,VALID,999.931,VALID,0.5,VALID,93.4857,VALID,0,VALID,24.1696,VALID,315,VALID,0.507422,
2010-02-15, 02:33:04,VALID,999.919,VALID,0,VALID,93.4857,VALID,0,VALID,24.1696,VALID,290,VALID,0.4625,
2010-02-15, 02:34:04,VALID,999.899,VALID,0,VALID,93.4934,VALID,0,VALID,24.1696,VALID,274,VALID,0.560547,
2010-02-15, 02:35:04,VALID,999.895,VALID,0,VALID,93.5239,VALID,0,VALID,24.1891,VALID,259,VALID,0.603906,
2010-02-15, 02:36:04,VALID,999.891,VALID,0,VALID,93.5086,VALID,0,VALID,24.1891,VALID,260,VALID,0.0132813,
2010-02-15, 02:37:04,VALID,999.864,VALID,0,VALID,93.5468,VALID,0,VALID,24.2086,VALID,194,VALID,0.504297,
2010-02-15, 02:38:04,VALID,999.872,VALID,0,VALID,93.5544,VALID,0,VALID,24.1872,VALID,190,VALID,0.845312,
2010-02-15, 02:39:04,VALID,999.888,VALID,0,VALID,93.6078,VALID,0,VALID,24.2671,VALID,187,VALID,1.01836,
2010-02-15, 02:40:04,VALID,999.861,VALID,0,VALID,93.6154,VALID,0,VALID,24.2866,VALID,172,VALID,1.76484,
2010-02-15, 02:41:04,VALID,999.883,VALID,0,VALID,93.6078,VALID,0,VALID,24.3062,VALID,198,VALID,2.28281,
2010-02-15, 02:42:04,VALID,999.905,VALID,0,VALID,93.5773,VALID,0,VALID,24.3062,VALID,184,VALID,1.76914,
2010-02-15, 02:43:04,VALID,999.909,VALID,0,VALID,93.5544,VALID,0,VALID,24.3257,VALID,178,VALID,2.10469,
2010-02-15, 02:44:04,VALID,999.914,VALID,0.5,VALID,93.5544,VALID,0,VALID,24.3062,VALID,179,VALID,1.2668,
2010-02-15, 02:45:04,VALID,999.959,VALID,0,VALID,93.5163,VALID,0,VALID,24.2848,VALID,180,VALID,0.919141,
2010-02-15, 02:46:04,VALID,999.994,VALID,0,VALID,93.5315,VALID,0,VALID,24.3062,VALID,161,VALID,1.29492,
2010-02-15, 02:47:04,VALID,999.971,VALID,0.5,VALID,93.5544,VALID,0,VALID,24.3452,VALID,154,VALID,2.07695,
2010-02-15, 02:48:04,VALID,999.943,VALID,0,VALID,93.562,VALID,0,VALID,24.3842,VALID,159,VALID,1.60586,
2010-02-15, 02:49:04,VALID,999.978,VALID,1,VALID,93.5468,VALID,0,VALID,24.3647,VALID,152,VALID,1.18555,
2010-02-15, 02:50:04,VALID,999.907,VALID,0,VALID,93.5239,VALID,0,VALID,24.3647,VALID,194,VALID,1.13125,
2010-02-15, 02:51:04,VALID,999.883,VALID,0.5,VALID,93.5315,VALID,0,VALID,24.3452,VALID,190,VALID,1.58359,
2010-02-15, 02:52:04,VALID,999.844,VALID,0.5,VALID,93.5391,VALID,0,VALID,24.3257,VALID,192,VALID,1.71289,
2010-02-15, 02:53:04,VALID,999.864,VALID,0,VALID,93.5468,VALID,0,VALID,24.3452,VALID,217,VALID,1.2707,
2010-02-15, 02:54:04,VALID,999.859,VALID,0,VALID,93.5773,VALID,0,VALID,24.3842,VALID,192,VALID,1.09297,
2010-02-15, 02:55:04,VALID,999.852,VALID,0,VALID,93.5697,VALID,0,VALID,24.3842,VALID,165,VALID,1.31328,
2010-02-15, 02:56:04,VALID,999.839,VALID,0,VALID,93.6154,VALID,0,VALID,24.4037,VALID,163,VALID,1.20625,
2010-02-15, 02:57:04,VALID,999.819,VALID,0,VALID,93.6078,VALID,0,VALID,24.4037,VALID,190,VALID,1.36523,
2010-02-15, 02:58:04,VALID,999.849,VALID,0,VALID,93.5697,VALID,0,VALID,24.4037,VALID,190,VALID,1.52734,
2010-02-15, 02:59:04,VALID,999.871,VALID,0,VALID,93.5773,VALID,0,VALID,24.4037,VALID,206,VALID,1.17578,
2010-02-15, 03:00:04,VALID,999.867,VALID,0,VALID,93.6078,VALID,0,VALID,24.3824,VALID,219,VALID,0.355469,
2010-02-15, 03:01:04,VALID,999.84,VALID,0,VALID,93.5926,VALID,0,VALID,24.4233,VALID,188,VALID,0.450391,
2010-02-15, 03:02:04,VALID,999.882,VALID,0,VALID,93.5849,VALID,0,VALID,24.3842,VALID,186,VALID,0.153906,
2010-02-15, 03:03:04,VALID,999.859,VALID,0,VALID,93.5773,VALID,0,VALID,24.3647,VALID,168,VALID,0.277734,
2010-02-15, 03:04:04,VALID,999.872,VALID,0,VALID,93.5697,VALID,0,VALID,24.3452,VALID,168,VALID,0,
2010-02-15, 03:05:04,VALID,999.877,VALID,0,VALID,93.5773,VALID,0,VALID,24.3062,VALID,168,VALID,0,
2010-02-15, 03:06:04,VALID,999.899,VALID,0,VALID,93.5697,VALID,0,VALID,24.2866,VALID,168,VALID,0,
2010-02-15, 03:07:04,VALID,999.911,VALID,0,VALID,93.6078,VALID,0,VALID,24.3062,VALID,165,VALID,1.29297,
2010-02-15, 03:08:04,VALID,999.955,VALID,0,VALID,93.646,VALID,0,VALID,24.3257,VALID,196,VALID,1.19141,
2010-02-15, 03:09:04,VALID,999.976,VALID,0,VALID,93.6383,VALID,0,VALID,24.3452,VALID,183,VALID,0.500391,
2010-02-15, 03:10:04,VALID,999.986,VALID,0,VALID,93.646,VALID,0,VALID,24.3452,VALID,174,VALID,1.40313,
2010-02-15, 03:11:04,VALID,999.973,VALID,0,VALID,93.6002,VALID,0,VALID,24.3257,VALID,178,VALID,1.98438,
2010-02-15, 03:12:04,VALID,999.969,VALID,0,VALID,93.6002,VALID,0,VALID,24.3257,VALID,183,VALID,1.61406,
2010-02-15, 03:13:04,VALID,999.979,VALID,0,VALID,93.6002,VALID,0,VALID,24.3062,VALID,202,VALID,1.21602,
2010-02-15, 03:14:04,VALID,999.959,VALID,0,VALID,93.5849,VALID,0,VALID,24.2866,VALID,191,VALID,1.26953,
2010-02-15, 03:15:04,VALID,999.96,VALID,0,VALID,93.6002,VALID,0,VALID,24.2866,VALID,214,VALID,0.957812,
2010-02-15, 03:16:04,VALID,999.948,VALID,0,VALID,93.6078,VALID,0,VALID,24.2866,VALID,197,VALID,0.738281,
2010-02-15, 03:17:04,VALID,999.92,VALID,0,VALID,93.6002,VALID,0,VALID,24.2476,VALID,149,VALID,1.06836,
2010-02-15, 03:18:04,VALID,999.892,VALID,0,VALID,93.6002,VALID,0,VALID,24.2476,VALID,183,VALID,0.484375,
2010-02-15, 03:19:04,VALID,999.909,VALID,0,VALID,93.6231,VALID,0,VALID,24.2671,VALID,223,VALID,0.8,
2010-02-15, 03:20:04,VALID,999.898,VALID,0,VALID,93.6002,VALID,0,VALID,24.2263,VALID,236,VALID,0.914453,
2010-02-15, 03:21:04,VALID,999.913,VALID,0,VALID,93.6002,VALID,0,VALID,24.2281,VALID,238,VALID,0.576563,
2010-02-15, 03:22:04,VALID,999.877,VALID,0,VALID,93.5926,VALID,0,VALID,24.2281,VALID,231,VALID,0.990234,
2010-02-15, 03:23:04,VALID,999.884,VALID,0,VALID,93.6078,VALID,0,VALID,24.2281,VALID,205,VALID,1.04141,
2010-02-15, 03:24:04,VALID,999.903,VALID,0,VALID,93.6002,VALID,0,VALID,24.2086,VALID,205,VALID,0.558984,
2010-02-15, 03:25:04,VALID,999.929,VALID,0,VALID,93.6002,VALID,0,VALID,24.2281,VALID,200,VALID,0.471484,
2010-02-15, 03:26:04,VALID,999.93,VALID,0,VALID,93.5849,VALID,0,VALID,24.2281,VALID,212,VALID,0.635547,
2010-02-15, 03:27:04,VALID,999.928,VALID,0,VALID,93.6002,VALID,0,VALID,24.2086,VALID,217,VALID,0,
2010-02-15, 03:28:04,VALID,999.957,VALID,0,VALID,93.6002,VALID,0,VALID,24.1872,VALID,217,VALID,0.0277344,
2010-02-15, 03:29:04,VALID,999.943,VALID,0,VALID,93.5926,VALID,0,VALID,24.1677,VALID,219,VALID,0.521094,
2010-02-15, 03:30:04,VALID,999.936,VALID,0,VALID,93.6078,VALID,0,VALID,24.2086,VALID,219,VALID,0.221094,
2010-02-15, 03:31:04,VALID,999.989,VALID,0,VALID,93.5926,VALID,0,VALID,24.1872,VALID,229,VALID,0.498828,
2010-02-15, 03:32:04,VALID,999.948,VALID,0,VALID,93.6078,VALID,0,VALID,24.1872,VALID,245,VALID,1.13984,
2010-02-15, 03:33:04,VALID,999.968,VALID,0,VALID,93.6231,VALID,0,VALID,24.1872,VALID,251,VALID,0.74375,
2010-02-15, 03:34:04,VALID,999.988,VALID,0,VALID,93.6231,VALID,0,VALID,24.2086,VALID,230,VALID,0.955469,
2010-02-15, 03:35:04,VALID,1000.02,VALID,0,VALID,93.6002,VALID,0,VALID,24.1677,VALID,220,VALID,0.815625,
2010-02-15, 03:36:04,VALID,1000.01,VALID,0,VALID,93.6078,VALID,0,VALID,24.1696,VALID,235,VALID,1.15469,
2010-02-15, 03:37:04,VALID,1000.04,VALID,0,VALID,93.6002,VALID,0,VALID,24.1677,VALID,216,VALID,0.885156,
2010-02-15, 03:38:04,VALID,1000.06,VALID,0,VALID,93.5926,VALID,0,VALID,24.1482,VALID,223,VALID,0.635938,
2010-02-15, 03:39:04,VALID,1000.07,VALID,0,VALID,93.6002,VALID,0,VALID,24.1482,VALID,214,VALID,0.822266,
2010-02-15, 03:40:04,VALID,1000.03,VALID,0,VALID,93.5773,VALID,0,VALID,24.15,VALID,235,VALID,1.08281,
2010-02-15, 03:41:04,VALID,1000.03,VALID,0,VALID,93.5849,VALID,0,VALID,24.15,VALID,232,VALID,0.810547,
2010-02-15, 03:42:04,VALID,1000.04,VALID,0,VALID,93.5926,VALID,0,VALID,24.1696,VALID,235,VALID,0.836719,
2010-02-15, 03:43:04,VALID,1000.01,VALID,0,VALID,93.6078,VALID,0,VALID,24.1482,VALID,234,VALID,0.779297,
2010-02-15, 03:44:04,VALID,1000.02,VALID,0,VALID,93.6002,VALID,0,VALID,24.15,VALID,242,VALID,1.07187,
2010-02-15, 03:45:04,VALID,1000.02,VALID,0,VALID,93.6307,VALID,0,VALID,24.15,VALID,264,VALID,0.787109,
2010-02-15, 03:46:04,VALID,1000.04,VALID,0,VALID,93.6078,VALID,0,VALID,24.15,VALID,266,VALID,0.575,
2010-02-15, 03:47:04,VALID,1000.06,VALID,0,VALID,93.6307,VALID,0,VALID,24.15,VALID,253,VALID,0.919531,
2010-02-15, 03:48:04,VALID,1000.08,VALID,0,VALID,93.6078,VALID,0,VALID,24.15,VALID,238,VALID,0.743359,
2010-02-15, 03:49:04,VALID,1000.09,VALID,0,VALID,93.6154,VALID,0,VALID,24.1287,VALID,235,VALID,0.770703,
2010-02-15, 03:50:04,VALID,1000.09,VALID,0,VALID,93.6307,VALID,0,VALID,24.15,VALID,210,VALID,0.892969,